Weather History for Concord, NC

Change the Weather History Date:

Saturday, March 23, 2013

  Actual Average (KCLT) Record (KCLT)
Temperature  
Mean Temperature 45 °F 53 °F  
Max Temperature 53 °F 65 °F 91 °F (1907)
Min Temperature 37 °F 41 °F 20 °F (1888)
Degree Days  
Heating Degree Days 20 12  
Month to date heating degree days 346  
Since 1 July heating degree days 3045  
Cooling Degree Days 0 0  
Month to date cooling degree days 0  
Year to date cooling degree days 0  
Moisture  
Dew Point 32 °F    
Average Humidity 66    
Maximum Humidity 87    
Minimum Humidity 37    
Precipitation  
Precipitation 0.00 in 0.11 in 2.00 in (1979)
Month to date precipitation 3.02  
Year to date precipitation 9.75  
Snow  
Snow 0.00 in 0.00 in 0.10 in (1885)
Month to date snowfall 0.5  
Since 1 July snowfall 4.2  
Snow Depth -    
Sea Level Pressure  
Sea Level Pressure 30.01 in    
Wind  
Wind Speed 1 mph (SSW)    
Max Wind Speed 5 mph    
Max Gust Speed -    
Visibility 10 miles    
Events      
T = Trace of Precipitation, MM = Missing Value Source: NWS Daily Summary

Daily Weather History Graph

Daily Weather History Graph

Search for Another Location

Airport:

Trip Planner

Search our weather history database for the weather conditions in past years. The results will help you decide how hot, cold, wet, or windy it might be!

Date:

Astronomy

Mar. 23, 2013 Rise Set
Actual Time 7:21 AM EDT 7:37 PM EDT
Civil Twilight 6:56 AM EDT 8:02 PM EDT
Nautical Twilight 6:26 AM EDT 8:32 PM EDT
Astronomical Twilight 5:56 AM EDT 9:02 PM EDT
Moon 4:09 PM EDT 4:50 AM EDT
Length of Visible Light 13h 06m
Length of Day
12h 15m
Waxing Gibbous, 85% of the Moon is Illuminated
Mar 23
Waxing Gibbous
Mar 27
Full
Apr 3
Last Quarter
Apr 10
New
Apr 18
First Quarter

Hourly Weather History & Observations

Time (EDT) Temp. Windchill Dew Point Humidity Pressure Visibility Wind Dir Wind Speed Gust Speed Precip Events Conditions
12:15 AM 46.4 °F 45.2 °F 21.2 °F 37% 30.06 in 10.0 mi WSW 3.5 mph - N/A   Overcast
12:35 AM 46.4 °F 44.3 °F 23.0 °F 40% 30.06 in 10.0 mi SW 4.6 mph - N/A   Overcast
12:55 AM 46.4 °F 45.2 °F 23.0 °F 40% 30.05 in 10.0 mi SSW 3.5 mph - N/A   Overcast
1:15 AM 44.6 °F - 23.0 °F 43% 30.05 in 10.0 mi Calm Calm - N/A   Overcast
1:35 AM 44.6 °F - 26.6 °F 49% 30.04 in 10.0 mi Calm Calm - N/A   Overcast
1:55 AM 44.6 °F 42.2 °F 24.8 °F 46% 30.04 in 10.0 mi SSW 4.6 mph - N/A   Overcast
2:15 AM 44.6 °F 43.1 °F 24.8 °F 46% 30.04 in 10.0 mi SSW 3.5 mph - N/A   Overcast
2:35 AM 42.8 °F - 24.8 °F 49% 30.03 in 10.0 mi Calm Calm - N/A   Mostly Cloudy
2:55 AM 41.0 °F - 26.6 °F 57% 30.03 in 10.0 mi Calm Calm - N/A   Clear
3:15 AM 39.2 °F - 26.6 °F 61% 30.02 in 10.0 mi Calm Calm - N/A   Clear
3:35 AM 41.0 °F - 26.6 °F 57% 30.03 in 10.0 mi Calm Calm - N/A   Clear
3:55 AM 37.4 °F - 26.6 °F 65% 30.02 in 10.0 mi Calm Calm - N/A   Clear
4:15 AM 37.4 °F - 28.4 °F 70% 30.03 in 10.0 mi Calm Calm - N/A   Clear
4:35 AM 37.4 °F - 28.4 °F 70% 30.02 in 10.0 mi Calm Calm - N/A   Clear
4:55 AM 37.4 °F - 30.2 °F 75% 30.01 in 10.0 mi Calm Calm - N/A   Clear
5:15 AM 37.4 °F - 28.4 °F 70% 30.01 in 10.0 mi Calm Calm - N/A   Scattered Clouds
5:35 AM 37.4 °F - 30.2 °F 75% 30.01 in 10.0 mi Calm Calm - N/A   Clear
5:55 AM 37.4 °F - 30.2 °F 75% 30.00 in 10.0 mi Calm Calm - N/A   Mostly Cloudy
6:15 AM 37.4 °F - 30.2 °F 75% 30.02 in 10.0 mi Calm Calm - N/A   Overcast
6:35 AM 39.2 °F - 32.0 °F 75% 30.02 in 10.0 mi Calm Calm - N/A   Overcast
6:55 AM 39.2 °F - 32.0 °F 75% 30.02 in 10.0 mi Calm Calm - N/A   Overcast
7:15 AM 39.2 °F - 32.0 °F 75% 30.03 in 10.0 mi Calm Calm - N/A   Overcast
7:35 AM 39.2 °F - 32.0 °F 75% 30.05 in 10.0 mi Calm Calm - N/A   Overcast
7:55 AM 39.2 °F - 33.8 °F 81% 30.06 in 10.0 mi Calm Calm - N/A   Overcast
8:55 AM 41.0 °F - 37.4 °F 87% 30.07 in 7.0 mi Calm Calm - N/A   Overcast
9:55 AM 42.8 °F - 35.6 °F 76% 30.08 in 7.0 mi Calm Calm - N/A   Overcast
10:55 AM 44.6 °F - 37.4 °F 76% 30.08 in 7.0 mi Calm Calm - N/A   Overcast
11:55 AM 44.6 °F - 35.6 °F 71% 30.08 in 5.0 mi Calm Calm - N/A   Overcast
12:55 PM 44.6 °F - 35.6 °F 71% 30.04 in 10.0 mi Calm Calm - N/A   Mostly Cloudy
1:55 PM 48.2 °F - 37.4 °F 66% 30.03 in 10.0 mi Calm Calm - N/A   Overcast
2:55 PM 48.2 °F - 37.4 °F 66% 30.01 in 10.0 mi Calm Calm - N/A   Overcast
3:55 PM 51.8 °F - 37.4 °F 58% 29.98 in 10.0 mi Calm Calm - N/A   Overcast
4:55 PM 53.6 °F - 37.4 °F 54% 29.95 in 10.0 mi Calm Calm - N/A   Scattered Clouds
5:55 PM 53.6 °F - 37.4 °F 54% 29.94 in 10.0 mi Calm Calm - N/A   Clear
6:55 PM 53.6 °F - 37.4 °F 54% - 10.0 mi Calm Calm - N/A   Clear
7:55 PM 53.6 °F - 37.4 °F 54% 29.94 in 10.0 mi Calm Calm - N/A   Clear
8:55 PM 48.2 °F - 39.2 °F 71% 29.98 in 10.0 mi SSE 4.6 mph - N/A   Clear
9:15 PM 48.2 °F - 37.4 °F 66% 29.98 in 10.0 mi Calm Calm - N/A   Clear
9:35 PM 46.4 °F 45.2 °F 37.4 °F 71% 29.99 in 10.0 mi SE 3.5 mph - N/A   Clear
9:55 PM 44.6 °F - 37.4 °F 76% 29.97 in 10.0 mi Calm Calm - N/A   Clear
10:15 PM 44.6 °F - 37.4 °F 76% 29.97 in 10.0 mi Calm Calm - N/A   Clear
10:35 PM 44.6 °F - 37.4 °F 76% 29.98 in 10.0 mi Calm Calm - N/A   Clear
10:55 PM 42.8 °F - 37.4 °F 81% 29.97 in 10.0 mi Calm Calm - N/A   Clear
11:15 PM 41.0 °F - 37.4 °F 87% 29.96 in 7.0 mi Calm Calm - N/A   Clear
11:35 PM 41.0 °F - 37.4 °F 87% 29.95 in 7.0 mi Calm Calm - N/A   Clear
11:55 PM 39.2 °F - 35.6 °F 87% 29.95 in 7.0 mi Calm Calm - N/A   Clear